Retour au catalogue

PEGASUS DEB

ActifPO
NORAD 39308·DEBRIS·🇺🇸 United States

Lancé May 19, 1994 depuis Vandenberg Space Force Base

Loading…

Prochains Passages (prochaines 24 heures)

TLE

FraisSource: Space-Track

Époque: Sep 14, 2026, 10:44 UTC

1 39308U 94029AET 26257.44756300  .00004013  00000-0  71652-3 0  9990
2 39308  81.9627 298.6124 0339323 115.9976 247.6577 14.35464654693526

Suivez PEGASUS DEB en temps réel avec AllMySat

Download on the App Store